This is the latest recevied weather packets stored in our database for station/object KO4T-4. If no packets are shown the sender has not sent any weather packets the latest 10 day(s).
| Time | Temp. | Humidity | Pressure | Rain* | Wind** | Luminosity | Snow |
|---|---|---|---|---|---|---|---|
| 1777930502 | 26.11° C | 31% | 1012.9 hPa | 0 mm | - | - | - |
| 1777930202 | 26.11° C | 30% | 1012.9 hPa | 0 mm | - | - | - |
| 1777929902 | 25.56° C | 32% | 1012.9 hPa | 0 mm | - | - | - |
| 1777929603 | 26.11° C | 31% | 1012.9 hPa | 0 mm | - | - | - |
| 1777929302 | 25.56° C | 31% | 1012.9 hPa | 0 mm | - | - | - |
| 1777929003 | 26.11° C | 31% | 1012.9 hPa | 0 mm | - | - | - |
| 1777928702 | 26.11° C | 32% | 1012.9 hPa | 0 mm | - | - | - |
| 1777928402 | 26.11° C | 32% | 1012.8 hPa | 0 mm | - | - | - |
| 1777928102 | 26.11° C | 31% | 1012.9 hPa | 0 mm | - | - | - |
| 1777927802 | 26.11° C | 31% | 1012.9 hPa | 0 mm | - | - | - |
| 1777927502 | 26.67° C | 31% | 1013 hPa | 0 mm | - | - | - |
| 1777927202 | 26.67° C | 30% | 1013 hPa | 0 mm | - | - | - |
| 1777926902 | 26.67° C | 30% | 1013.1 hPa | 0 mm | - | - | - |
| 1777926603 | 26.67° C | 30% | 1013.1 hPa | 0 mm | - | - | - |
| 1777926302 | 27.22° C | 31% | 1013.1 hPa | 0 mm | - | - | - |
| 1777926002 | 27.22° C | 29% | 1013.2 hPa | 0 mm | - | - | - |
| 1777925702 | 26.67° C | 31% | 1013.3 hPa | 0 mm | - | - | - |
| 1777925402 | 26.67° C | 30% | 1013.3 hPa | 0 mm | - | - | - |
| 1777925102 | 26.67° C | 33% | 1013.3 hPa | 0 mm | - | - | - |
| 1777924802 | 26.67° C | 34% | 1013.5 hPa | 0 mm | - | - | - |
| 1777924502 | 26.67° C | 32% | 1013.4 hPa | 0 mm | - | - | - |
| 1777924202 | 26.11° C | 34% | 1013.6 hPa | 0 mm | - | - | - |
| 1777923902 | 26.11° C | 33% | 1013.6 hPa | 0 mm | - | - | - |
| 1777923602 | 26.11° C | 31% | 1013.7 hPa | 0 mm | - | - | - |
| 1777923302 | 26.11° C | 33% | 1013.7 hPa | 0 mm | - | - | - |
* Rain latest hour (hover to see other rain measurements)
** Current wind speed in m/s (hover to see current wind gust speed)